Location: Winter Haven
(28.0220°N, 81.7330°W)
Time: 20:25:41
(UTC-04:00)

Amateur Radio Satellites - All Passes

Search period start: 31 October 2014 19:55
Search period end: 01 November 2014 19:55
Location: Winter Haven, 28.0220°N, 81.7330°W

Satellite Date Start Highest point End Downlink Frequencies (MHz)
Time Altitude Azimuth
STRAND 1 31 Oct 20:04:01 20:09:08 64° 102° (ESE) 20:14:11 ?
HO-68 31 Oct 20:05:02 20:07:40 12° 60° (ENE) 20:10:19 435.675 MHz FM
AO-40 31 Oct 20:11:50 22:21:27 21° 104° (ESE) 23:29:26 Beacon 2401.320
KITSAT 1 31 Oct 20:34:13 20:41:46 42° 59° (ENE) 20:49:17 435.175 FM
SO-50 31 Oct 20:47:25 20:51:57 38° 59° (ENE) 20:56:28 436.795 FM
Oscar 10/S400 31 Oct 20:55:19 21:35:05 70° 205° (SSW) 07:46:51 145.825 - 145.975 CW/USB, Beacon 145.810 USB
SO-67 31 Oct 20:56:15 20:57:12 11° 265° (W) 20:58:10 435.3500 MHz FM
Oscar 11 31 Oct 21:23:30 21:24:07 10° 68° (ENE) 21:24:43 145.825 FM, Beacon 2401.500 USB
RS-15 31 Oct 21:44:53 21:56:00 81° 296° (WNW) 22:06:58 29.354 - 29.394 USB, Beacon 29.352 USB
MaSat-1 31 Oct 21:45:10 21:48:43 28° 108° (ESE) 21:52:01 437.345 MHz
STRAND 1 31 Oct 21:46:28 21:47:41 11° 294° (WNW) 21:48:54 ?
HO-68 31 Oct 21:47:12 21:54:22 90° 75° (ENE) 22:01:35 435.675 MHz FM
UKube-1 31 Oct 22:20:46 22:25:04 65° 76° (ENE) 22:29:23 145.840 MHz, 145.915 MHz
SO-50 31 Oct 22:28:57 22:32:11 18° 251° (WSW) 22:35:24 436.795 FM
KITSAT 1 31 Oct 22:29:55 22:36:52 33° 254° (WSW) 22:43:50 435.175 FM
ZACube-1 31 Oct 22:30:47 22:34:45 30° 74° (ENE) 22:38:40 437.345 MHz
Oscar 11 31 Oct 22:55:39 22:59:49 47° 260° (W) 23:03:58 145.825 FM, Beacon 2401.500 USB
UOSAT-12 31 Oct 23:09:33 23:14:14 81° 245° (WSW) 23:18:49 437.025 FM, 437.400 FM
FUNcube-1 31 Oct 23:12:53 23:17:27 80° 258° (WSW) 23:21:57 145.950 - 145.970 MHz USB
MaSat-1 31 Oct 23:21:52 23:24:01 14° 296° (WNW) 23:26:04 437.345 MHz
HO-68 31 Oct 23:41:33 23:42:37 10° 267° (W) 23:43:42 435.675 MHz FM
RS-15 01 Nov 00:03:20 00:10:07 18° 318° (NW) 00:16:55 29.354 - 29.394 USB, Beacon 29.352 USB
ZACube-1 01 Nov 00:08:03 00:11:05 17° 264° (W) 00:14:04 437.345 MHz
Oscar 16 01 Nov 01:46:28 01:48:57 14° 95° (E) 01:51:26 437.025 USB, Beacon 2401.1428
Sapphire 01 Nov 01:49:32 01:54:11 30° 107° (ESE) 01:58:51 437.095 MHz 1200 baud AX-25 AFSK
PCSat 01 Nov 02:10:26 02:15:41 56° 110° (ESE) 02:20:58 145.825 MHz
AO-Echo 01 Nov 02:17:16 02:20:09 15° 94° (E) 02:23:00 ?
JAS-1B 01 Nov 02:18:41 02:25:56 42° 101° (E) 02:34:20 435.800 - 435.900 CW/SSB
Uribyol 2 01 Nov 02:21:14 02:22:49 11° 94° (E) 02:24:24 436.500 FM
ITAMSAT 1 01 Nov 02:28:33 02:30:59 13° 95° (E) 02:33:24 435.822 SSB
Oscar 19 01 Nov 02:36:20 02:41:17 50° 100° (E) 02:46:14 437.125 CW, 437.150 USB
PANSAT 01 Nov 03:05:17 03:08:38 28° 158° (SSE) 03:11:59 not established
AO-27 01 Nov 03:14:04 03:19:04 45° 100° (E) 03:24:00 436.795 MHz FM
Oscar 16 01 Nov 03:23:32 03:28:26 48° 286° (WNW) 03:33:21 437.025 USB, Beacon 2401.1428
Gurwin Techsat 1B 01 Nov 03:32:49 03:37:38 35° 99° (E) 03:42:26 435.225 FM
Sapphire 01 Nov 03:33:03 03:37:30 26° 301° (WNW) 03:41:59 437.095 MHz 1200 baud AX-25 AFSK
TMSAT-1 01 Nov 03:39:02 03:43:35 29° 98° (E) 03:48:06 436.925 FM
AO-Echo 01 Nov 03:53:58 03:59:03 48° 286° (WNW) 04:04:02 ?
PCSat 01 Nov 03:56:19 03:59:23 15° 305° (NW) 04:02:28 145.825 MHz
Uribyol 2 01 Nov 03:57:26 04:02:31 57° 285° (WNW) 04:07:33 436.500 FM
ITAMSAT 1 01 Nov 04:05:36 04:10:38 50° 286° (WNW) 04:15:37 435.822 SSB
AO-7 01 Nov 04:06:05 04:09:43 13° 95° (E) 04:13:20 29.400 - 29.500 MHz
JAS-1B 01 Nov 04:09:35 04:16:14 35° 289° (WNW) 04:23:54 435.800 - 435.900 CW/SSB
Oscar 19 01 Nov 04:17:36 04:20:08 14° 293° (WNW) 04:22:41 437.125 CW, 437.150 USB
PANSAT 01 Nov 04:44:44 04:48:34 77° 170° (S) 04:52:25 not established
RS-15 01 Nov 04:46:05 04:50:51 13° 37° (NE) 04:55:39 29.354 - 29.394 USB, Beacon 29.352 USB
AO-27 01 Nov 04:55:04 04:58:07 16° 292° (WNW) 05:01:10 436.795 MHz FM
Gurwin Techsat 1B 01 Nov 05:13:25 05:17:18 21° 291° (WNW) 05:21:10 435.225 FM
Saudisat 1A 01 Nov 05:14:45 05:18:36 31° 112° (ESE) 05:22:28 436.775 MHz
OPAL 01 Nov 05:16:22 05:20:35 27° 69° (ENE) 05:24:47 ?
TMSAT-1 01 Nov 05:19:03 05:23:18 25° 290° (WNW) 05:27:33 436.925 FM
Uosat F 01 Nov 05:45:43 05:50:46 73° 102° (ESE) 05:55:46 435.120 FM
JAS-2 01 Nov 05:51:04 05:57:32 28° 95° (E) 06:03:38 435.800 - 435.900 CW/SSB, 435.910 FM
AO-7 01 Nov 05:54:42 06:03:04 87° 287° (WNW) 06:11:26 29.400 - 29.500 MHz
PANSAT 01 Nov 06:24:53 06:28:44 83° 2° (N) 06:32:35 not established
Hamsat 01 Nov 06:30:20 06:33:53 26° 97° (E) 06:37:26 145.90 MHz
RS-15 01 Nov 06:54:48 07:05:57 61° 61° (ENE) 07:17:34 29.354 - 29.394 USB, Beacon 29.352 USB
OPAL 01 Nov 06:55:05 06:59:18 26° 260° (W) 07:03:31 ?
Saudisat 1A 01 Nov 06:55:08 06:58:09 18° 305° (NW) 07:01:11 436.775 MHz
STRAND 1 01 Nov 07:13:06 07:17:58 45° 73° (ENE) 07:22:50 ?
JAS-2 01 Nov 07:35:10 07:42:34 47° 289° (WNW) 07:49:35 435.800 - 435.900 CW/SSB, 435.910 FM
AO-7 01 Nov 07:50:45 07:54:40 14° 302° (WNW) 07:58:36 29.400 - 29.500 MHz
PANSAT 01 Nov 08:05:05 08:08:51 55° 195° (SSW) 08:12:36 not established
Hamsat 01 Nov 08:06:43 08:09:35 18° 288° (WNW) 08:12:27 145.90 MHz
SO-67 01 Nov 08:23:22 08:26:49 81° 101° (E) 08:30:15 435.3500 MHz FM
STRAND 1 01 Nov 08:54:25 08:57:15 15° 265° (W) 09:00:06 ?
RS-15 01 Nov 09:08:19 09:17:37 30° 255° (WSW) 09:27:19 29.354 - 29.394 USB, Beacon 29.352 USB
MaSat-1 01 Nov 09:11:23 09:13:13 20° 253° (WSW) 09:15:02 437.345 MHz
HO-68 01 Nov 09:23:42 09:29:26 25° 98° (E) 09:35:07 435.675 MHz FM
PANSAT 01 Nov 09:46:03 09:48:40 18° 205° (SSW) 09:51:16 not established
ISS 01 Nov 09:48:00 09:51:15 57° 314° (NW) 09:54:31 145.800 FM
UKube-1 01 Nov 10:16:46 10:19:55 20° 97° (E) 10:23:03 145.840 MHz, 145.915 MHz
Oscar 11 01 Nov 10:49:59 10:54:12 52° 100° (E) 10:58:23 145.825 FM, Beacon 2401.500 USB
KITSAT 1 01 Nov 10:53:48 11:01:50 74° 112° (ESE) 11:09:53 435.175 FM
SO-50 01 Nov 10:55:29 10:59:50 59° 114° (ESE) 11:04:18 436.795 FM
PCSat 01 Nov 11:08:22 11:09:52 11° 53° (NE) 11:11:22 145.825 MHz
FUNcube-1 01 Nov 11:09:25 11:13:08 31° 98° (E) 11:16:49 145.950 - 145.970 MHz USB
HO-68 01 Nov 11:10:24 11:17:10 46° 290° (WNW) 11:23:54 435.675 MHz FM
UOSAT-12 01 Nov 11:37:31 11:38:46 11° 107° (ESE) 11:40:02 437.025 FM, 437.400 FM
UKube-1 01 Nov 11:52:26 11:55:59 25° 288° (WNW) 11:59:31 145.840 MHz, 145.915 MHz
ZACube-1 01 Nov 12:02:48 12:06:47 46° 285° (WNW) 12:10:45 437.345 MHz
Sapphire 01 Nov 12:26:53 12:32:14 59° 65° (ENE) 12:37:33 437.095 MHz 1200 baud AX-25 AFSK
SO-50 01 Nov 12:39:26 12:40:44 11° 309° (NW) 12:42:02 436.795 FM
FUNcube-1 01 Nov 12:47:05 12:49:11 14° 290° (WNW) 12:51:16 145.950 - 145.970 MHz USB
PCSat 01 Nov 12:48:23 12:53:48 78° 248° (WSW) 12:59:11 145.825 MHz
KITSAT 1 01 Nov 12:52:17 12:57:52 20° 309° (NW) 13:03:29 435.175 FM
Oscar 16 01 Nov 12:59:18 12:59:41 10° 66° (ENE) 13:00:04 437.025 USB, Beacon 2401.1428
JAS-1B 01 Nov 13:02:31 13:04:23 12° 65° (ENE) 13:06:13 435.800 - 435.900 CW/SSB
UOSAT-12 01 Nov 13:13:54 13:18:22 52° 299° (WNW) 13:22:57 437.025 FM, 437.400 FM
ITAMSAT 1 01 Nov 13:41:48 13:42:43 10° 65° (ENE) 13:43:38 435.822 SSB
Oscar 19 01 Nov 13:46:34 13:51:13 36° 73° (ENE) 13:55:51 437.125 CW, 437.150 USB
Sapphire 01 Nov 14:12:57 14:15:04 12° 257° (WSW) 14:17:11 437.095 MHz 1200 baud AX-25 AFSK
AO-27 01 Nov 14:25:33 14:30:13 34° 72° (ENE) 14:34:54 436.795 MHz FM
Oscar 16 01 Nov 14:33:15 14:38:23 69° 258° (WSW) 14:43:31 437.025 USB, Beacon 2401.1428
Gurwin Techsat 1B 01 Nov 14:47:23 14:51:51 28° 71° (ENE) 14:56:20 435.225 FM
JAS-1B 01 Nov 14:48:39 14:54:30 61° 258° (WSW) 15:00:06 435.800 - 435.900 CW/SSB
TMSAT-1 01 Nov 14:53:27 14:57:33 23° 70° (ENE) 15:01:39 436.925 FM
AO-Echo 01 Nov 14:59:29 15:04:23 77° 258° (WSW) 15:09:30 ?
AO-7 01 Nov 15:01:29 15:02:31 10° 55° (NE) 15:03:34 29.400 - 29.500 MHz
Uribyol 2 01 Nov 15:08:04 15:13:17 78° 257° (WSW) 15:18:32 436.500 FM
ITAMSAT 1 01 Nov 15:16:22 15:21:33 69° 258° (WSW) 15:26:46 435.822 SSB
Saudisat 1A 01 Nov 15:26:42 15:31:00 50° 61° (ENE) 15:35:16 436.775 MHz
Oscar 19 01 Nov 15:26:59 15:30:33 19° 264° (W) 15:34:06 437.125 CW, 437.150 USB
AO-27 01 Nov 16:05:55 16:09:42 20° 264° (W) 16:13:30 436.795 MHz FM
Gurwin Techsat 1B 01 Nov 16:27:21 16:31:41 25° 263° (W) 16:36:02 435.225 FM
TMSAT-1 01 Nov 16:32:34 16:37:13 31° 262° (W) 16:41:54 436.925 FM
AO-7 01 Nov 16:45:39 16:53:51 71° 71° (ENE) 17:02:04 29.400 - 29.500 MHz
Uosat F 01 Nov 16:52:07 16:56:55 47° 74° (ENE) 17:01:45 435.120 FM
Saudisat 1A 01 Nov 17:09:24 17:10:04 10° 253° (WSW) 17:10:43 436.775 MHz
OPAL 01 Nov 17:34:58 17:36:48 12° 96° (E) 17:38:38 ?
JAS-2 01 Nov 17:39:12 17:44:48 39° 70° (ENE) 17:51:05 435.800 - 435.900 CW/SSB, 435.910 FM
ISS 01 Nov 17:58:28 18:01:47 68° 47° (NE) 18:05:05 145.800 FM
Uosat F 01 Nov 18:33:27 18:35:50 13° 265° (W) 18:38:14 435.120 FM
AO-7 01 Nov 18:41:48 18:47:01 18° 264° (W) 18:52:16 29.400 - 29.500 MHz
Hamsat 01 Nov 18:51:44 18:55:52 59° 260° (W) 18:59:59 145.90 MHz
KITSAT 1 01 Nov 18:59:29 19:01:04 11° 44° (NE) 19:02:40 435.175 FM
RS-15 01 Nov 19:07:01 19:09:23 11° 100° (E) 19:11:43 29.354 - 29.394 USB, Beacon 29.352 USB
OPAL 01 Nov 19:11:04 19:15:51 51° 288° (WNW) 19:20:38 ?
JAS-2 01 Nov 19:25:04 19:29:56 25° 266° (W) 19:35:18 435.800 - 435.900 CW/SSB, 435.910 FM
STRAND 1 01 Nov 19:31:11 19:35:31 27° 98° (E) 19:39:49 ?
SO-50 01 Nov 19:36:47 19:37:33 10° 51° (NE) 19:38:18 436.795 FM
